C/2019 K7 ( Smith )

Japanese version
Home page
Updated on August 19, 2019

---------------------------------------------------------------------

* Profile

Discovery Date May 30, 2019
Magnitude 17.7 mag
Discoverer Ken W. Smith (Asteroid Terrestrial-Impact Last Alert System (ATLAS) search program)

* Pictures

* Orbital Elements

Epoch 2020 May 31.0 TT = JDT 2459000.5                                          
T 2020 June 16.91634 TT                                 Williams                
q   4.4748365            (2000.0)            P               Q                  
z  -0.0003410      Peri.   27.29550     +0.46152958     -0.44588306             
 +/-0.0001596      Node   307.92379     -0.88100966     -0.12904102             
e   1.0015260      Incl.  103.53278     +0.10398283     +0.88574077             
H                                                                               
From 175 observations 2019 May 30-Aug. 10, mean residual 0".4.                  

* Finding Charts

* Magnitudes Graph

        m1 = 6.0 + 5 log d + 10.0 log r

---------------------------------------------------------------------

The orbital elements are published on M.P.E.C. 2019-Q18.
The charts are made with StellaNavigator Ver.10 (AstroArts).
The magnitudes graphs are made with Comet for Windows.

---------------------------------------------------------------------

Copyright(C) Seiichi Yoshida (comet@aerith.net). All rights reserved.